Regional Weather Roundup
Issued by NWS

Home | Current Version | Previous Version | Text Only | Print | Product List | Glossary Off
Versions: 1 2 3 4 5 6 7 8 9 10 11 12 13 14 15 16 17 18 19 20 21 22 23 24 25 26 27 28 29 30 31 32 33 34 35 36 37 38 39 40 41 42 43 44 45 46 47 48 49 50

000
ASUS43 KMKX 221321
RWRWI

WISCONSIN REGIONAL WEATHER ROUNDUP
NATIONAL WEATHER SERVICE MILWAUKEE/SULLIVAN WI
800 AM CDT THU JUN 22 2017

NOTE: "FAIR" INDICATES FEW OR NO CLOUDS BELOW 12,000 FEET WITH NO
SIGNIFICANT WEATHER AND/OR OBSTRUCTIONS TO VISIBILITY.

WIZ001-002-006>008-014>016-023>028-221400-
NORTHWEST WISCONSIN

CITY           SKY/WX    TMP DP  RH WIND       PRES   REMARKS
SUPERIOR ARPT  NOT AVBL
ASHLAND        CLOUDY    66  60  81 W8        29.70R
HAYWARD        PTSUNNY   66  60  81 SW5       29.72F
SIREN          CLOUDY    65  63  90 NW5       29.74R
CUMBERLAND     LGT RAIN  63  61  94 S5        29.74R
RICE LAKE      RAIN      64  61  92 SW3       29.76R
CHETEK           N/A     64  62  93 CALM      29.73S
LADYSMITH      CLOUDY    64  60  87 CALM      29.74F
EAU CLAIRE     CLOUDY    68  64  87 S5        29.71S
MENOMONIE      RAIN      67  65  94 CALM      29.72R
NEW RICHMOND   DRIZZLE   65  64  94 SW3       29.76R
OSCEOLA        CLOUDY    65  65 100 S3        29.75F
$$

WIZ003>005-009-010-017-018-221400-
NORTH CENTRAL WISCONSIN

CITY           SKY/WX    TMP DP  RH WIND       PRES   REMARKS
MANITOWISH WTR CLOUDY    64  63  99 SW7       29.74R
ARBOR VITAE    CLOUDY    64  61  89 SW7       29.74R
WOODRUFF       CLOUDY    64  61  89 SW7       29.74R
RHINELANDER    CLOUDY    65  63  93 SW8       29.74S
EAGLE RIVER    CLOUDY    64  58  82 SW6       29.72F
LAND O LAKES   CLOUDY    65  60  83 CALM      29.75R
PHILLIPS       CLOUDY    63  62  96 CALM      29.73F
TOMAHAWK       NOT AVBL
MEDFORD        CLOUDY    66  64  91 W6        29.74S
MERRILL        MOSUNNY   67  65  91 W7        29.74S
$$

WIZ029-030-035-036-043>047-221400-
CENTRAL WISCONSIN

CITY           SKY/WX    TMP DP  RH WIND       PRES   REMARKS
WAUSAU         PTSUNNY   68  64  87 VRB3      29.72R
MOSINEE        MOSUNNY   66  66 100 SW8       29.75R
MARSHFIELD     CLOUDY    69  65  86 SW7       29.73R
STEVENS POINT  CLOUDY    66  66 100 SW6       29.75R
WAUPACA        CLOUDY    71  70  96 SW7       29.74R
WAUTOMA        CLOUDY    69  67  93 SW6       29.76R
WISC RAPIDS    LGT RAIN  71  69  93 SW7       29.75S
CAMP DOUGLAS   CLOUDY    70  68  94 S3        29.74R
$$

WIZ011>013-019>022-031-037>040-048>050-221400-
NORTHEAST WISCONSIN

CITY           SKY/WX    TMP DP  RH WIND       PRES   REMARKS
ANTIGO         CLOUDY    65  64  93 W7        29.74F
SHAWANO        CLOUDY    69  64  85 SW5       29.73R
OCONTO         PTSUNNY   68  64  85 SW7       29.72S
STURGEON BAY     N/A     69  65  86 SW9         N/A
GREEN BAY      CLOUDY    70  68  93 SW9       29.73F
MANITOWOC      CLOUDY    62  60  93 SE6       29.75F FOG
APPLETON       PTSUNNY   70  66  88 SW12      29.73F
CLINTONVILLE   CLOUDY    68  63  83 SW5       29.73R
OSHKOSH        CLOUDY    70  66  87 SW3       29.75R
$$

WIZ032>034-041-042-053>061-221400-
SOUTHWEST WISCONSIN

CITY           SKY/WX    TMP DP  RH WIND       PRES   REMARKS
LA CROSSE      CLOUDY    74  68  81 S7        29.69F
SPARTA         CLOUDY    69  68  95 CALM      29.73S
VIROQUA        CLOUDY    71  65  80 SW14      29.75S
BOSCOBEL       CLOUDY    70  65  84 S6        29.72F
PRAIRIE DU CHI DRIZZLE   70  61  73 S13G20    29.72F
PLATTEVILLE    CLOUDY    72  67  84 SW5       29.80R
$$

WIZ056-057-062-063-064-067-068-221400-
SOUTH CENTRAL WISCONSIN

CITY           SKY/WX    TMP DP  RH WIND       PRES   REMARKS
REEDSBURG      CLOUDY    69  69 100 SE3       29.74F
BARABOO/DELLS  CLOUDY    68  66  93 SE6       29.75F
LONE ROCK      CLOUDY    69  66  90 VRB3      29.74R FOG
MINERAL POINT  RAIN      70  70 100 S15G21    29.80R
MADISON        LGT RAIN  71  67  87 S8        29.74F
MIDDLETON      CLOUDY    72  67  83 SW12      29.75F
WATERTOWN      CLOUDY    68  68 100 E5        29.78F FOG
MONROE         PTSUNNY   73  63  68 S15       29.80F
JANESVILLE     PTSUNNY   75  66  73 SW15G21   29.80F
$$

WIZ051-052-058>065-066-070>072-221400-
SOUTHEAST WISCONSIN

CITY           SKY/WX    TMP DP  RH WIND       PRES   REMARKS
MILWAUKEE      CLOUDY    75  67  76 SW6       29.81F
WAUKESHA       PTSUNNY   70  64  83 SE6       29.83F
MILWAUKEE/TIMM MOSUNNY   72  64  78 S3        29.82F
RACINE         CLOUDY    77  65  66 W10       29.83F
KENOSHA        PTSUNNY   76  66  71 SW15G24   29.83F
FOND DU LAC    CLOUDY    71  66  84 S8        29.77F
SHEBOYGAN      LGT RAIN  70  68  93 SW17      29.75F
WEST BEND      LGT RAIN  68  68 100 S7        29.80F
JUNEAU         CLOUDY    67  66  94 CALM      29.81S
$$

LSZ147-162-221400-
LAKE SUPERIOR

STATION/POSITION TIME  TEMP    WIND        PRES    WAVE
                       AIR SEA DIR/SP/G            HT/PER
                 (UTC) (F)     (DEG/KT/KT) (MB)    (FT/S)
W MID LAKE BUOY  1250   43 39  240/  6/  6 1004.8R   1
DEVILS ISLAND    1300   53     230/ 12/ 14 1005.2F
SAXON HARBOR     1240   69     220/  7/ 11 1005.4R
$$

LMZ867-665-643>646-221400-
LAKE MICHIGAN

STATION/POSITION TIME  TEMP    WIND        PRES    WAVE
                       AIR SEA DIR/SP/G            HT/PER
                 (UTC) (F)     (DEG/KT/KT) (MB)    (FT/S)
CHAMBERS ISLAND  1240   66     190/  4/  7 1006.1S
N MID LAKE BUOY  1250   58 54  180/ 14/ 16 1007.1F   2/ 4
NORTHPORT PIER   1240   62     160/  5/  9 1006.8S
KEWAUNEE LAKESHO 1254   55     190/  8/ 10 1006.6F
SHEBOYGAN LAKESH 1300   66     180/ 19/ 21 1007.1F
PORT WASHINGTON  1240   70     210/  4/  9 1009.8F
ATWATER BUOY     1209   69 54  210/  4/  6 1010.2R
MILWAUKEE LAKESH 1300   74     240/  4/  4   N/A
S MID LAKE BUOY  1250   65 61  180/ 10/ 10 1010.9R   2/ 4
KENOSHA   LAKESH 1300   77     240/ 10/ 19 1009.8
$$

TC  - TEMPERATURE IN CELSIUS
VSB - VISIBILITY IN STATUTE MILES
WCI - WIND CHILL INDEX
HX  - HEAT INDEX





USA.gov is the U.S. government's official web portal to all federal, state and local government web resources and services.